www.pogodaiklimat.ru

Погода и климат >> Архив погоды >> Самоа >> Lufi-Lufi


ПОГОДА в Lufi-Lufi

  • Прогноз погоды в Lufi-Lufi
  • Монитор погоды в Lufi-Lufi
  • Климат города

АРХИВ ПОГОДЫ в Lufi-Lufi

Время (UTC), дата Ветер
(напр.,м/с)
 
Видим.   Явления Облачность Т
(С)
Тd
(С)
f
(%)
Тe
(С)
Тes
(С)
Комфортность P
(гПа)
Po
(гПа)
Тmin
(С)
Tmax
(С)
R
(мм)
R24
(мм)
S
(см)
00 11.11 В 2 н/о н/о -40.0 0.0 100 -48 -48 опасность
обморожения
1013.5 1006.5 -40.0
03 11.11 В 2 н/о н/о -40.0 0.0 100 -48 -48 опасность
обморожения
1012.7 1005.7
06 11.11 ЮВ 1 н/о н/о -40.0 0.0 100 -42 -42 опасность
обморожения
1013.6 1006.6
09 11.11 Ю 1 н/о н/о -40.0 0.0 100 -45 -45 опасность
обморожения
1015.2 1008.2
12 11.11 0 н/о -40.0 +2 +2 очень
душно
1014.2 1007.2
15 11.11 Ю 1 н/о н/о -40.0 0.0 100 -45 -45 опасность
обморожения
1013.1 1006.1
18 11.11 ЮВ 1 н/о н/о -40.0 0.0 100 -42 -42 опасность
обморожения
1014.5 1007.5
21 11.11 В 2 н/о н/о -40.0 0.0 100 -49 -49 опасность
обморожения
1014.5 1007.5
00 12.11 В 2 н/о н/о -40.0 0.0 100 -49 -49 опасность
обморожения
1013.2 1006.2 -40.0
03 12.11 В 2 н/о н/о -40.0 0.0 100 -48 -48 опасность
обморожения
1012.1 1005.1
06 12.11 штиль 0 н/о н/о -40.0 0.0 100 -40 -40 опасность
обморожения
1012.8 1005.8
09 12.11 Ю 1 н/о н/о -40.0 0.0 100 -42 -42 опасность
обморожения
1014.1 1007.1
15 12.11 Ю 1 н/о н/о -40.0 0.0 100 -45 -45 опасность
обморожения
1012.3 1005.3
18 12.11 Ю 1 н/о н/о -40.0 0.0 100 -42 -42 опасность
обморожения
1013.2 1006.2
21 12.11 В 2 н/о н/о -40.0 0.0 100 -48 -48 опасность
обморожения
1013.2 1006.2
00 13.11 В 2 н/о н/о -40.0 0.0 100 -48 -48 опасность
обморожения
1012.0 1005.0 -40.0
03 13.11 В 2 н/о н/о -40.0 0.0 100 -48 -48 опасность
обморожения
1010.9 1003.9
06 13.11 В 1 н/о н/о -40.0 0.0 100 -45 -45 опасность
обморожения
1012.2 1005.2
09 13.11 Ю 1 н/о н/о -40.0 0.0 100 -42 -42 опасность
обморожения
1013.6 1006.6
15 13.11 Ю 1 н/о н/о -40.0 0.0 100 -45 -45 опасность
обморожения
1011.3 1004.3
18 13.11 Ю 1 н/о н/о -40.0 0.0 100 -45 -45 опасность
обморожения
1013.3 1006.3
21 13.11 В 2 н/о н/о -40.0 0.0 100 -48 -48 опасность
обморожения
1013.5 1006.5
00 14.11 В 2 н/о н/о -40.0 0.0 100 -48 -48 опасность
обморожения
1012.7 1005.7 -40.0
03 14.11 В 1 н/о н/о -40.0 0.0 100 -45 -45 опасность
обморожения
1011.7 1004.7
06 14.11 В 1 н/о н/о -40.0 0.0 100 -45 -45 опасность
обморожения
1012.4 1005.4
09 14.11 ЮВ 1 н/о н/о -40.0 0.0 100 -45 -45 опасность
обморожения
1014.6 1007.6
15 14.11 Ю 1 н/о н/о -40.0 0.0 100 -42 -42 опасность
обморожения
1011.5 1004.5
18 14.11 Ю 1 н/о н/о -40.0 0.0 100 -42 -42 опасность
обморожения
1013.6 1006.6
21 14.11 штиль 0 н/о н/о -40.0 0.0 100 -40 -40 опасность
обморожения
1014.9 1007.9
00 15.11 З 1 н/о н/о -40.0 0.0 100 -42 -42 опасность
обморожения
1013.8 1006.8 -40.0
03 15.11 СЗ 1 н/о н/о -40.0 0.0 100 -42 -42 опасность
обморожения
1011.4 1004.4
06 15.11 штиль 0 н/о н/о -40.0 0.0 100 -40 -40 опасность
обморожения
1013.0 1006.0
09 15.11 штиль 0 н/о н/о -40.0 0.0 100 -40 -40 опасность
обморожения
1013.0 1006.0
12 15.11 штиль 0 н/о н/о -40.0 0.0 100 -40 -40 опасность
обморожения
1011.7 1004.7 -40.0
15 15.11 СЗ 1 н/о н/о -40.0 0.0 100 -42 -42 опасность
обморожения
1010.6 1003.6
18 15.11 штиль 0 н/о н/о -40.0 0.0 100 -40 -40 опасность
обморожения
1012.5 1005.5
21 15.11 С 1 н/о н/о -40.0 0.0 100 -42 -42 опасность
обморожения
1013.3 1006.3
00 16.11 штиль 0 н/о н/о -40.0 0.0 100 -40 -40 опасность
обморожения
1011.9 1004.9 -40.0
03 16.11 СЗ 1 н/о н/о -40.0 0.0 100 -42 -42 опасность
обморожения
1011.3 1004.3
06 16.11 З 2 н/о н/о -40.0 0.0 100 -48 -48 опасность
обморожения
1011.6 1004.6
09 16.11 штиль 0 н/о н/о -40.0 0.0 100 -40 -40 опасность
обморожения
1011.4 1004.4
12 16.11 0 н/о -40.0 +27 +27 очень
душно
1010.5 1003.5
15 16.11 Ю 1 н/о н/о -40.0 0.0 100 -45 -45 опасность
обморожения
1010.1 1003.1
18 16.11 штиль 0 н/о н/о -40.0 0.0 100 -40 -40 опасность
обморожения
1011.6 1004.6
21 16.11 С 2 н/о н/о -40.0 0.0 100 -48 -48 опасность
обморожения
1012.1 1005.1
00 17.11 СЗ 1 н/о н/о -40.0 0.0 100 -45 -45 опасность
обморожения
1010.2 1003.2 -40.0
03 17.11 штиль 0 н/о н/о -40.0 0.0 100 -40 -40 опасность
обморожения
1009.9 1002.9
06 17.11 штиль 0 н/о н/о -40.0 0.0 100 -40 -40 опасность
обморожения
1011.1 1004.1
09 17.11 Ю 1 н/о н/о -40.0 0.0 100 -45 -45 опасность
обморожения
1012.1 1005.1
12 17.11 штиль 0 н/о н/о -40.0 0.0 100 -40 -40 опасность
обморожения
1010.7 1003.7 -40.0
15 17.11 Ю 1 н/о н/о -40.0 0.0 100 -42 -42 опасность
обморожения
1010.6 1003.6
18 17.11 СЗ 1 н/о н/о -40.0 0.0 100 -45 -45 опасность
обморожения
1012.3 1005.3

 

Местоположение метеостанции Lufi-Lufi (Самоа): широта -13.88 долгота -171.56 высота над уровнем моря 48 м.

В архиве по умолчанию представлена погода в Lufi-Lufi за последнюю неделю. Архивные данные за месяц целиком и за предыдущие месяцы, начиная с января 2011 года, Вы можете получить, выбрав интересующий диапазон дат из раскрывающегося списка и нажав кнопку "Ввод!".


*Определитесь, кто Вы:
робот инопланетянин человек

Внимание! Время в таблицах - всемирное. Для получения местного времени необходимо прибавить поправку, которая в Lufi-Lufi равна 13 ч.

Смотрите также архив погоды в соседних городах и на ближайших метеорологических станциях:

Погода в Le Mafa (Самоа) (10 км)
Погода в Apia (Американское Самоа) (18 км)
Погода в Togitogiga (Самоа) (28 км)
Погода в Faleolo Int East (Самоа) (47 км)
Погода в Faleolo Int Airport (Американское Самоа) (48 км)
Погода в Faleolo Int Airport (Самоа) (50 км)
Погода в Manono (Самоа) (59 км)
Погода в Maota Int Airport (Самоа) (77 км)
Погода в Le Piu Tai (Самоа) (101 км)
Погода в Mount Talu (Самоа) (130 км)

Пояснения к столбцам:

Ветер - указаны скорость ветра в м/с - средняя за 10 мин, порывы в срок и между сроками (в фигурных скобках) и направление, откуда дует ветер: С - северный, СВ - северо-восточный, В - восточный, ЮВ - юго-восточный, Ю - южный, ЮЗ - юго-западный, З - западный, СЗ - северо-западный.
Видимость - горизонтальная дальность видимости в метрах или километрах. При видимости от 1 до 10 км при отсутствии осадков обычно наблюдается дымка, при ухудшении видимости до 1 км и менее - туман. В сухую погоду видимость может ухудшаться дымом, пылью или мглою.
Явления - указаны атмосферные явления, наблюдавшиеся в срок или в последний час перед сроком; фигурными скобками обозначены явления, наблюдавшиеся между сроками (за 1-3 часа до срока); квадратными скобками обозначены град или гололедные отложения с указанием их диаметра в мм.
Облачность - указаны через наклонную черту общая и нижняя облачность в баллах и высота нижней границы облаков в метрах; квадратными скобками обозначены формы облаков: Ci - перистые, Cs - перисто-слоистые, Cc - перисто-кучевые, Ac - высококучевые, As - высокослоистые, Sc - слоисто-кучевые, Ns - слоисто-дождевые, Cu - кучевые, Cb - кучево-дождевые. Подробнее классификацию облаков см. в Атласе облаков (PDF).
T - Температура воздуха - температура, измеренная на высоте 2 м над землей.
Td - Температура точки росы - температура, при понижении до которой содержащийся в воздухе водяной пар достигнет насыщения.
f - Относительная влажность воздуха - влажноcть воздуха, измеренная на высоте 2 м над землей.
Te - Эффективная температура - температура, которую ощущает одетый по сезону человек в тени. Характеристика душности погоды. При расчете учитывается влияние влажности воздуха и скорости ветра на теплоощущения человека.
Tes - Эффективная температура на солнце - температура, которую ощущает человек, с поправкой на солнечный нагрев. Характеристика знойности погоды. Зависит от высоты солнца над горизонтом, облачности и скорости ветра. Ночью, в пасмурную погоду, а также при ветре 12 м/с и более поправка равна нулю.
P - Атмосферное давление - приведенное к уровню моря атмосферное давление.
Po - Атмосферное давление - измеренное на уровне метеостанции атмосферное давление.
Tmin - Минимальная температура - минимум температуры воздуха на высоте 2 м над землей.
Tmax - Максимальная температура - максимум температуры воздуха на высоте 2 м над землей.
R - Количество осадков - Количество выпавших осадков за период времени, мм. При наведении курсора мыши на число - период времени, за который выпало указанное количество осадков.
R24 - Количество осадков - Количество выпавших осадков за 24 часа, мм.
S - Снежный покров - Высота снежного покрова, см. При наведении курсора мыши на число - состояние снежного покрова и степень покрытия местности в баллах.